KC3QLX Weather Reports


Display with metric or nautical units.
time (UTC)temp
F
wind
direction
speed
MPH
gust
MPH
rain 1hr
in
rain 24hr
in
rain mn
in
humidity
%
barometer
mb
20260505183236 82 211 9.0 10.0 0.00 0.06 0.06 36 1008.1
20260505182732 81 43 1.0 2.0 0.00 0.06 0.06 40 1007.9
20260505182229 82 193 6.0 8.0 0.00 0.06 0.06 38 1007.7
20260505181725 81 222 1.0 1.0 0.00 0.06 0.06 39 1008.1
20260505181223 81 232 4.0 6.0 0.00 0.06 0.06 37 1008.1
20260505180720 81 1 3.0 6.0 0.00 0.06 0.06 43 1008.2
20260505180217 81 278 3.0 5.0 0.00 0.06 0.06 44 1008.3
20260505175713 81 271 5.0 7.0 0.00 0.06 0.06 41 1008.0
20260505175209 81 27 5.0 7.0 0.00 0.06 0.06 39 1008.1
20260505174706 81 284 7.0 11.0 0.00 0.06 0.06 40 1008.3
20260505174203 80 12 3.0 6.0 0.00 0.06 0.06 40 1008.4
20260505173659 80 35 2.0 2.0 0.00 0.06 0.06 42 1008.3
20260505173156 80 273 2.0 5.0 0.00 0.06 0.06 42 1008.4
20260505172653 80 21 1.0 1.0 0.00 0.06 0.06 44 1008.5
20260505172150 80 356 5.0 7.0 0.00 0.06 0.06 41 1008.3
20260505171649 80 49 1.0 1.0 0.00 0.06 0.06 41 1008.7
20260505171147 80 42 3.0 5.0 0.00 0.06 0.06 41 1008.3
20260505170644 80 69 5.0 6.0 0.00 0.06 0.06 41 1008.7
20260505170141 80 219 6.0 9.0 0.00 0.06 0.06 41 1008.7
20260505165641 80 219 2.0 5.0 0.00 0.06 0.06 43 1008.9
20260505165137 80 58 2.0 2.0 0.00 0.06 0.06 44 1008.9
20260505164632 79 286 4.0 5.0 0.00 0.06 0.06 45 1008.9
20260505164130 79 293 2.0 2.0 0.00 0.06 0.06 47 1008.9
20260505163628 79 270 2.0 3.0 0.00 0.06 0.06 48 1009.2
20260505163126 79 256 4.0 6.0 0.00 0.06 0.06 45 1009.0
20260505162623 78 211 3.0 3.0 0.00 0.06 0.06 47 1009.1
20260505162121 78 282 7.0 8.0 0.00 0.06 0.06 47 1009.2
20260505161618 79 172 3.0 5.0 0.00 0.06 0.06 47 1009.3
20260505161115 78 357 4.0 5.0 0.00 0.06 0.06 50 1009.2
20260505160613 78 209 6.0 9.0 0.00 0.06 0.06 47 1009.5
20260505160110 77 355 4.0 5.0 0.00 0.06 0.06 51 1009.3
20260505153049 77 216 3.0 3.0 0.00 0.06 0.06 52 1009.7
20260505152546 76 194 5.0 7.0 0.00 0.06 0.06 49 1009.7
20260505152042 76 197 3.0 3.0 0.00 0.06 0.06 50 1009.9
20260505151537 75 110 0.0 0.0 0.00 0.06 0.06 53 1009.7
20260505151035 75 265 3.0 3.0 0.00 0.06 0.06 53 1009.6
20260505150531 75 100 4.0 6.0 0.00 0.06 0.06 51 1010.0
20260505140456 71 64 2.0 2.0 0.00 0.06 0.06 62 1010.2
20260505124909 58 171 0.0 0.0 0.00 0.06 0.06 98 1010.9
20260505124406 57 183 0.0 0.0 0.00 0.06 0.06 99 1010.6
20260505123902 57 201 0.0 0.0 0.00 0.06 0.06 99 1010.5
20260505123359 56 208 0.0 0.0 0.00 0.06 0.06 99 1010.6
20260505122855 56 176 0.0 0.0 0.00 0.06 0.06 99 1010.4
20260505122352 55 177 0.0 1.0 0.00 0.06 0.06 99 1010.5
20260505121849 55 170 0.0 0.0 0.00 0.06 0.06 99 1010.3
20260505121346 55 172 0.0 0.0 0.00 0.06 0.06 99 1010.4
20260505120842 56 179 0.0 0.0 0.00 0.06 0.06 99 1010.4
20260505120338 56 183 0.0 0.0 0.00 0.06 0.06 99 1010.5
20260505115837 54 202 0.0 0.0 0.00 0.06 0.06 99 1010.4
20260505115334 53 204 0.0 0.0 0.00 0.06 0.06 99 1010.6
20260505114832 53 203 0.0 0.0 0.00 0.06 0.06 99 1010.4
20260505114328 53 203 0.0 0.0 0.00 0.06 0.06 99 1010.4
20260505113825 52 203 0.0 0.0 0.00 0.06 0.06 99 1010.4
20260505113321 51 204 0.0 0.0 0.00 0.06 0.06 99 1010.5
20260505112817 51 204 0.0 0.0 0.00 0.06 0.06 99 1010.6
20260505112315 51 203 0.0 0.0 0.00 0.06 0.06 99 1010.4
20260505111810 50 203 0.0 0.0 0.00 0.06 0.06 99 1010.4
20260505111306 50 204 0.0 0.0 0.00 0.06 0.06 99 1010.3
20260505110756 50 203 0.0 0.0 0.00 0.06 0.06 99 1010.0
20260505110255 49 203 0.0 0.0 0.00 0.06 0.06 99 1010.1
20260505101728 50 204 0.0 0.0 0.00 0.06 0.06 99 1009.9
20260505101224 50 204 0.0 0.0 0.00 0.06 0.06 99 1009.7
20260505100721 50 204 0.0 0.0 0.00 0.06 0.06 99 1009.7
20260505100218 50 205 0.0 0.0 0.00 0.06 0.06 99 1009.9
20260505095713 50 205 0.0 0.0 0.00 0.06 0.06 99 1009.8
20260505095212 50 204 0.0 0.0 0.00 0.06 0.06 99 1009.6
20260505094707 50 205 0.0 0.0 0.00 0.06 0.06 99 1009.8
20260505094203 50 204 0.0 0.0 0.00 0.06 0.06 99 1009.7
20260505093700 50 204 0.0 0.0 0.00 0.06 0.06 99 1009.7
20260505093157 51 204 0.0 0.0 0.00 0.06 0.06 99 1009.4
20260505092654 51 204 0.0 0.0 0.00 0.06 0.06 99 1009.5
20260505092153 51 205 0.0 0.0 0.00 0.06 0.06 99 1009.3
20260505091649 51 204 0.0 0.0 0.00 0.06 0.06 99 1009.5
20260505091147 51 205 0.0 0.0 0.00 0.06 0.06 99 1009.3
20260505090644 52 205 0.0 0.0 0.00 0.06 0.06 99 1009.5
20260505090143 52 205 0.0 0.0 0.00 0.06 0.06 99 1009.3
20260505085640 52 206 0.0 0.0 0.00 0.06 0.06 99 1009.5
20260505085138 52 184 0.0 0.0 0.00 0.06 0.06 99 1009.4
20260505084635 52 206 0.0 0.0 0.00 0.06 0.06 99 1009.6
20260505084134 53 203 0.0 0.0 0.00 0.06 0.06 99 1009.5
20260505083631 53 136 0.0 0.0 0.00 0.06 0.06 99 1009.6
20260505083127 53 132 0.0 0.0 0.00 0.06 0.06 99 1009.6
20260505082623 53 106 0.0 0.0 0.00 0.06 0.06 99 1009.8
20260505082120 53 142 0.0 0.0 0.00 0.06 0.06 99 1010.0
20260505081616 53 188 0.0 0.0 0.00 0.06 0.06 99 1009.8
20260505081114 53 295 1.0 2.0 0.00 0.06 0.06 98 1010.2
20260505080610 53 68 0.0 1.0 0.00 0.06 0.06 98 1009.6
20260505080107 53 67 0.0 0.0 0.00 0.06 0.06 97 1009.8
20260505075603 53 67 0.0 0.0 0.31 0.06 0.06 96 1009.7
20260505075059 53 67 0.0 0.0 0.38 0.06 0.06 95 1009.6
20260505074556 54 316 2.0 2.0 0.07 0.01 0.01 91 1009.9
20260505074054 53 250 0.0 0.0 0.00 0.00 0.00 90 1009.8
20260505073551 53 250 0.0 0.0 0.00 0.00 0.00 90 1009.5
20260505073050 53 256 0.0 0.0 0.00 0.00 0.00 89 1009.3
20260505072550 53 251 0.0 0.0 0.00 0.00 0.00 89 1009.1
20260505072047 54 251 0.0 0.0 0.00 0.00 0.00 89 1008.8
20260505071542 54 251 0.0 0.0 0.00 0.00 0.00 89 1008.9
20260505071040 54 271 0.0 0.0 0.00 0.00 0.00 88 1009.2
20260505070537 54 272 1.0 1.0 0.00 0.00 0.00 87 1008.9
20260505070033 55 264 3.0 3.0 0.00 0.00 0.00 86 1009.2
20260505065529 55 182 0.0 0.0 0.00 0.00 0.00 83 1009.2
20260505065026 55 182 0.0 0.0 0.00 0.00 0.00 82 1009.0
20260505064523 55 182 0.0 0.0 0.00 0.00 0.00 81 1009.4
20260505064022 55 182 0.0 0.0 0.00 0.00 0.00 80 1009.5
20260505063518 55 182 0.0 0.0 0.00 0.00 0.00 79 1009.4
20260505063014 54 182 0.0 0.0 0.00 0.00 0.00 79 1009.5
20260505062511 55 182 0.0 0.0 0.00 0.00 0.00 79 1009.4
20260505062008 55 182 0.0 0.0 0.00 0.00 0.00 79 1009.3
20260505061506 55 182 0.0 0.0 0.00 0.00 0.00 78 1009.3
20260505061003 55 182 0.0 0.0 0.00 0.00 0.00 78 1009.4
20260505060500 56 182 0.0 0.0 0.00 0.00 0.00 77 1009.5
20260505055956 56 182 0.0 0.0 0.00 0.00 0.00 74 1009.5
20260505055452 55 182 0.0 0.0 0.00 0.00 0.00 75 1009.5
20260505054949 55 182 0.0 0.0 0.00 0.00 0.00 77 1009.4
20260505054447 54 182 0.0 0.0 0.00 0.00 0.00 78 1009.5
20260505053945 54 182 0.0 0.0 0.00 0.00 0.00 78 1009.5
20260505053441 54 120 0.0 0.0 0.00 0.00 0.00 78 1009.4
20260505052938 55 120 0.0 0.0 0.00 0.00 0.00 76 1009.6
20260505052435 55 167 0.0 0.0 0.00 0.00 0.00 76 1009.3
20260505051932 55 167 0.0 0.0 0.00 0.00 0.00 75 1009.4
20260505051429 55 176 0.0 0.0 0.00 0.00 0.00 76 1009.2
20260505050928 56 183 0.0 0.0 0.00 0.00 0.00 75 1009.3
20260505050426 56 184 1.0 1.0 0.00 0.00 0.00 72 1009.3
20260505041353 58 256 0.0 0.0 0.00 0.00 0.00 66 1009.1
20260505040850 59 217 0.0 0.0 0.00 0.00 0.00 65 1009.1
20260505040348 59 194 0.0 1.0 0.00 0.00 0.00 64 1009.2
20260505035844 59 206 1.0 2.0 0.00 0.00 0.00 62 1009.2
20260505035340 60 132 1.0 1.0 0.00 0.00 0.00 63 1009.1
20260505034838 60 160 0.0 1.0 0.00 0.00 0.00 62 1009.4
20260505034334 59 183 1.0 1.0 0.00 0.00 0.00 62 1009.1
20260505033831 59 134 0.0 0.0 0.00 0.00 0.00 64 1009.1
20260505033328 59 212 0.0 0.0 0.00 0.00 0.00 64 1009.0
20260505032826 59 212 1.0 1.0 0.00 0.00 0.00 63 1009.0
20260505032322 60 211 0.0 0.0 0.00 0.00 0.00 61 1008.9
20260505031820 61 174 0.0 0.0 0.00 0.00 0.00 59 1009.2
20260505031316 61 164 2.0 2.0 0.00 0.00 0.00 57 1009.0
20260505030813 61 350 0.0 0.0 0.00 0.00 0.00 59 1009.1
20260505030310 62 287 2.0 2.0 0.00 0.00 0.00 58 1009.2
20260505025805 62 272 2.0 2.0 0.00 0.00 0.00 55 1009.0
20260505025304 62 260 2.0 3.0 0.00 0.00 0.00 56 1008.7
20260505024801 62 94 2.0 3.0 0.00 0.00 0.00 55 1009.0
20260505024258 63 323 3.0 3.0 0.00 0.00 0.00 54 1009.1
20260505023755 62 303 1.0 1.0 0.00 0.00 0.00 54 1009.2
20260505023252 62 239 1.0 1.0 0.00 0.00 0.00 54 1009.3
20260505022750 62 226 1.0 2.0 0.00 0.00 0.00 54 1009.4
20260505022246 62 289 1.0 2.0 0.00 0.00 0.00 55 1009.3
20260505021743 62 68 0.0 0.0 0.00 0.00 0.00 55 1009.5
20260505021240 62 207 0.0 1.0 0.00 0.00 0.00 55 1009.4
20260505020736 63 284 0.0 1.0 0.00 0.00 0.00 55 1009.6
20260505020231 63 191 0.0 1.0 0.00 0.00 0.00 53 1009.4
20260505015729 64 153 0.0 0.0 0.00 0.00 0.00 53 1009.6
20260505015225 63 97 2.0 2.0 0.00 0.00 0.00 54 1009.5
20260505014723 63 100 2.0 3.0 0.00 0.00 0.00 54 1009.4
20260505014220 63 186 0.0 1.0 0.00 0.00 0.00 54 1009.4
20260505013717 63 157 1.0 2.0 0.00 0.00 0.00 54 1009.6
20260505013214 63 132 0.0 0.0 0.00 0.00 0.00 55 1009.4
20260505012712 63 131 0.0 0.0 0.00 0.00 0.00 55 1009.3
20260505012209 64 132 0.0 0.0 0.00 0.00 0.00 53 1009.4
20260505011704 64 263 1.0 3.0 0.00 0.00 0.00 53 1009.5
20260505011202 64 172 0.0 0.0 0.00 0.00 0.00 52 1009.2
20260505010657 64 105 0.0 0.0 0.00 0.00 0.00 54 1009.1
20260505010154 64 91 0.0 1.0 0.00 0.00 0.00 54 1009.1
20260505005650 64 192 2.0 2.0 0.00 0.00 0.00 53 1008.9
20260505005148 63 249 1.0 3.0 0.00 0.00 0.00 55 1008.8
20260505004644 64 137 0.0 0.0 0.00 0.00 0.00 53 1008.7
20260505004141 64 250 0.0 0.0 0.00 0.00 0.00 52 1008.9
20260505003638 65 125 1.0 2.0 0.00 0.00 0.00 52 1008.8
20260505003136 65 98 1.0 2.0 0.00 0.00 0.00 52 1008.8
20260505002632 65 222 1.0 1.0 0.00 0.00 0.00 52 1008.8
20260505002130 65 328 1.0 1.0 0.00 0.00 0.00 52 1008.8
20260505001626 66 354 1.0 1.0 0.00 0.00 0.00 50 1008.4
20260505001124 66 164 0.0 1.0 0.00 0.00 0.00 49 1008.5
20260505000621 66 165 0.0 1.0 0.00 0.00 0.00 49 1008.4
20260505000119 67 150 1.0 1.0 0.00 0.00 0.00 48 1008.3
20260504235615 67 311 1.0 2.0 0.00 0.00 0.00 48 1008.4
20260504235112 67 73 0.0 0.0 0.00 0.00 0.00 47 1008.8
20260504234609 68 139 4.0 5.0 0.00 0.00 0.00 47 1008.5
20260504234106 68 137 3.0 3.0 0.00 0.00 0.00 47 1008.3
20260504233601 68 212 1.0 2.0 0.00 0.00 0.00 46 1008.2
20260504233058 68 197 0.0 0.0 0.00 0.00 0.00 46 1008.4
20260504232555 69 237 1.0 2.0 0.00 0.00 0.00 46 1008.1
20260504232053 69 18 2.0 2.0 0.00 0.00 0.00 45 1007.9
20260504231549 69 155 2.0 3.0 0.00 0.00 0.00 44 1007.9
20260504231045 70 114 1.0 1.0 0.00 0.00 0.00 45 1008.1
20260504230542 70 272 3.0 5.0 0.00 0.00 0.00 43 1008.1
20260504230041 70 215 2.0 2.0 0.00 0.00 0.00 42 1007.9
20260504225538 71 351 4.0 5.0 0.00 0.00 0.00 42 1007.8
20260504225035 71 319 2.0 3.0 0.00 0.00 0.00 43 1007.9
20260504224531 71 215 0.0 0.0 0.00 0.00 0.00 42 1007.9
20260504224028 72 237 3.0 5.0 0.00 0.00 0.00 41 1007.9
20260504223525 72 239 0.0 1.0 0.00 0.00 0.00 41 1007.8
20260504223021 72 49 2.0 2.0 0.00 0.00 0.00 40 1007.7
20260504222518 73 296 3.0 5.0 0.00 0.00 0.00 41 1007.7
20260504222016 73 148 0.0 1.0 0.00 0.00 0.00 42 1007.7
20260504221513 72 336 4.0 5.0 0.00 0.00 0.00 40 1008.0
20260504221009 73 49 3.0 3.0 0.00 0.00 0.00 40 1008.1
20260504220506 74 181 0.0 1.0 0.00 0.00 0.00 39 1008.0
20260504220003 73 221 3.0 5.0 0.00 0.00 0.00 40 1008.2
20260504215459 73 346 2.0 2.0 0.00 0.00 0.00 41 1008.1
20260504214956 74 197 2.0 2.0 0.00 0.00 0.00 40 1008.1
20260504214452 73 38 1.0 1.0 0.00 0.00 0.00 41 1008.0
20260504213949 73 221 1.0 2.0 0.00 0.00 0.00 40 1008.0
20260504213445 72 107 2.0 2.0 0.00 0.00 0.00 40 1008.2
20260504212943 73 280 1.0 2.0 0.00 0.00 0.00 40 1008.1
20260504212438 74 158 2.0 2.0 0.00 0.00 0.00 40 1008.1
20260504211937 73 192 0.0 0.0 0.00 0.00 0.00 39 1008.1
20260504211432 74 83 3.0 3.0 0.00 0.00 0.00 39 1008.1
20260504210930 73 91 0.0 1.0 0.00 0.00 0.00 39 1008.2
20260504210427 73 3 1.0 1.0 0.00 0.00 0.00 42 1008.3
20260504205924 72 295 2.0 2.0 0.00 0.00 0.00 39 1008.3
20260504205422 73 203 1.0 2.0 0.00 0.00 0.00 39 1008.4
20260504204919 73 19 2.0 3.0 0.00 0.00 0.00 40 1008.4
20260504204418 73 238 6.0 8.0 0.00 0.00 0.00 39 1008.5
20260504203917 72 0 3.0 3.0 0.00 0.00 0.00 40 1008.5
20260504203414 73 278 1.0 2.0 0.00 0.00 0.00 44 1008.7
20260504202909 73 298 3.0 3.0 0.00 0.00 0.00 41 1008.7
20260504202406 73 151 2.0 2.0 0.00 0.00 0.00 39 1008.7
20260504201903 73 279 4.0 7.0 0.00 0.00 0.00 40 1008.7
20260504201401 72 246 0.0 1.0 0.00 0.00 0.00 39 1009.0
20260504200857 72 306 2.0 3.0 0.00 0.00 0.00 39 1008.7
20260504200354 72 352 2.0 2.0 0.00 0.00 0.00 40 1009.0
20260504195851 71 254 2.0 3.0 0.00 0.00 0.00 41 1009.0
20260504195346 72 215 2.0 3.0 0.00 0.00 0.00 41 1009.1
20260504194843 72 165 3.0 5.0 0.00 0.00 0.00 41 1009.3
20260504194339 72 199 2.0 2.0 0.00 0.00 0.00 40 1009.2
20260504193836 72 318 4.0 6.0 0.00 0.00 0.00 40 1009.3
20260504193333 73 184 5.0 8.0 0.00 0.00 0.00 38 1009.3
20260504192831 73 8 3.0 3.0 0.00 0.00 0.00 40 1009.5
20260504192329 74 311 1.0 2.0 0.00 0.00 0.00 39 1009.4
20260504191827 73 148 3.0 5.0 0.00 0.00 0.00 39 1009.4
20260504191325 73 210 2.0 2.0 0.00 0.00 0.00 40 1009.6
20260504190820 73 223 4.0 5.0 0.00 0.00 0.00 39 1009.5
20260504190316 72 190 2.0 3.0 0.00 0.00 0.00 40 1009.5
20260504185813 71 309 3.0 5.0 0.00 0.00 0.00 41 1009.5
20260504185310 72 22 3.0 5.0 0.00 0.00 0.00 39 1009.8
20260504184806 72 200 1.0 2.0 0.00 0.00 0.00 39 1009.7
20260504184302 72 93 7.0 9.0 0.00 0.00 0.00 39 1009.9
20260504183758 71 297 1.0 1.0 0.00 0.00 0.00 40 1009.9